Regional Weather Roundup
Issued by NWS Cleveland, OH

Home | Current Version | Previous Version | Graphics & Text | Print | Product List | Glossary On
Versions: 1 2 3 4 5 6 7 8 9 10 11 12 13 14 15 16 17 18 19 20 21 22 23 24 25 26 27 28 29 30 31 32 33 34 35 36 37 38 39 40 41 42 43 44 45 46 47 48 49 50
000
ASUS41 KCLE 262310
RWRCLE
OHIO REGIONAL WEATHER ROUNDUP
NATIONAL WEATHER SERVICE WILMINGTON, OH
600 PM EST SUN FEB 26 2017

NOTE: "FAIR" INDICATES FEW OR NO CLOUDS BELOW 12,000 FEET WITH NO
SIGNIFICANT WEATHER AND/OR OBSTRUCTIONS TO VISIBILITY.

OHZ001>008-015>018-024>027-034-035-043-044-270000-
   NORTHWEST OHIO

CITY           SKY/WX    TMP DP  RH WIND       PRES   REMARKS
DEFIANCE       FAIR      41  20  43 SW12G24   30.05R
FINDLAY        CLOUDY    42  20  41 SW20      30.07R
TOLEDO EXPRESS FAIR      42  19  39 SW13G23   30.04R
TOLEDO EXEC    FAIR      43  21  41 SW18G29   30.06R
LIMA           FAIR      41  19  41 SW13      30.08R
$$

OHZ009>014-019>023-028>033-038-089-270000-
   NORTHEAST OHIO

CITY           SKY/WX    TMP DP  RH WIND       PRES   REMARKS
CLE-HOPKINS    FAIR      41  16  36 SW13      30.10R
CLE-LAKEFRONT  FAIR      41  16  36 S20       30.08R
CUY CO. ARPT   PTCLDY    41  19  42 S16       30.08R
LORAIN-ELYRIA  FAIR      39  19  44 SW18G30   30.08S
ASHTABULA      FAIR      37  17  44 SW13      30.09R
AKRON-CANTON   FAIR      38  18  44 SW13      30.11R
WOOSTER        FAIR      37  20  50 SW12G25   30.11R
MANSFIELD      FAIR      38  18  44 SW20G25   30.09R
YOUNGSTOWN     FAIR      37  16  42 SW8       30.10R
$$

OHZ042-051>053-060>062-070>072-077>081-270000-
  SOUTHWEST OHIO

CITY           SKY/WX    TMP DP  RH WIND       PRES   REMARKS
CINC-COVINGTON MOCLDY    45  14  28 SW13      30.15R
CINC-LUNKEN    FAIR      45  19  35 SW12      30.17R
HAMILTON       MOCLDY    46  14  27 SW7       30.16R
DAYTON         MOCLDY    42  15  33 SW13      30.13R
WRIGHT-PAT AFB FAIR      43  13  30 S9        30.14R
DAYTON GENERAL CLOUDY    44  14  29 S10       30.13R
WILMINGTON     FAIR      42  18  37 SW13      30.14S
$$

OHZ036-037-039>041-045>050-054>059-063>069-073>076-082>088-270000-
  CENTRAL AND SOUTHEAST OHIO

CITY           SKY/WX    TMP DP  RH WIND       PRES   REMARKS
COLUMBUS       FAIR      44  16  32 SW12      30.15R
OSU AIRPORT    FAIR      41  19  41 SW16      30.14R
BOLTON FIELD   CLEAR     39  21  48 SW13      30.16R
RICKENBACK AFB FAIR      40  19  43 SW7       30.16R
NEWARK         FAIR      41  18  39 SW10      30.15R
MARION         FAIR      39  18  42 SW12      30.11R
LANCASTER      FAIR      42  17  36 S6        30.17R
ZANESVILLE     FAIR      42  13  30 SW7       30.16R
NEW PHILLY     FAIR      40  17  39 SW8       30.15R
$$




USA.gov is the U.S. government's official web portal to all federal, state and local government web resources and services.